When you browse on this site, cookies collect data to enhance your experience and personalize the content and advertising you see.
Visit our Privacy Policy to learn more. By continuing to use the site, you agree to this use of cookies and data.
  • In Hungary
  • List of Countries
  • For 7 days
  • Water Temperature
  • Satellite Maps
  • Weather Map
  • News
  • Weather Widgets
  • user-avatar
    Login

    Hourly Weather Krzetow

    Today, 18 June, Tuesday

    Time Temperature Precipitation Wind Pressure Humidity
    00:00 +16°C° 0 mm 2 mps 747 mmHg 90%
    01:00 +16°C° 0 mm 2 mps 747 mmHg 94%
    02:00 +16°C° 0 mm 2 mps 747 mmHg 94%
    03:00 +16°C° 0 mm 2 mps 747 mmHg 95%
    04:00 +15°C° 0 mm 2 mps 747 mmHg 95%
    05:00 +17°C° 0 mm 2 mps 747 mmHg 89%
    06:00 +19°C° 0 mm 3 mps 747 mmHg 83%
    07:00 +20°C° 0 mm 3 mps 747 mmHg 77%
    08:00 +21°C° 0 mm 3 mps 747 mmHg 71%
    09:00 +24°C° 0 mm 3 mps 747 mmHg 65%
    10:00 +25°C° 0 mm 3 mps 747 mmHg 58%
    11:00 +25°C° 0 mm 3 mps 747 mmHg 58%
    12:00 +26°C° 0 mm 3 mps 746 mmHg 58%
    13:00 +26°C° 0 mm 3 mps 746 mmHg 58%
    14:00 +26°C° 0 mm 4 mps 746 mmHg 58%
    15:00 +26°C° 0 mm 4 mps 746 mmHg 59%
    16:00 +26°C° 0 mm 4 mps 745 mmHg 60%
    17:00 +25°C° 0.1 mm 3 mps 745 mmHg 65%
    18:00 +24°C° 0.1 mm 3 mps 745 mmHg 71%
    19:00 +22°C° 0.1 mm 3 mps 744 mmHg 76%
    20:00 +21°C° 0 mm 3 mps 744 mmHg 79%
    21:00 +21°C° 0 mm 3 mps 744 mmHg 82%
    22:00 +20°C° 0 mm 3 mps 744 mmHg 85%
    23:00 +19°C° 0 mm 3 mps 744 mmHg 88%

    Tomorrow, 19 June, Wednesday

    Time Temperature Precipitation Wind Pressure Humidity
    00:00 +19°C° 0 mm 3 mps 744 mmHg 91%
    01:00 +18°C° 0 mm 3 mps 744 mmHg 94%
    02:00 +18°C° 0 mm 3 mps 743 mmHg 94%
    03:00 +18°C° 0 mm 3 mps 743 mmHg 94%
    04:00 +18°C° 0 mm 2 mps 743 mmHg 94%
    05:00 +19°C° 0 mm 3 mps 743 mmHg 90%
    06:00 +20°C° 0 mm 3 mps 743 mmHg 87%
    07:00 +21°C° 0 mm 3 mps 743 mmHg 83%
    08:00 +22°C° 0 mm 3 mps 743 mmHg 80%
    09:00 +24°C° 0 mm 3 mps 742 mmHg 78%
    10:00 +24°C° 0 mm 2 mps 742 mmHg 76%
    11:00 +26°C° 0.4 mm 2 mps 742 mmHg 69%
    12:00 +28°C° 0.4 mm 2 mps 742 mmHg 62%
    13:00 +29°C° 0.4 mm 1 mps 741 mmHg 56%
    14:00 +29°C° 0 mm 1 mps 741 mmHg 53%
    15:00 +30°C° 0 mm 1 mps 741 mmHg 51%
    16:00 +30°C° 0 mm 1 mps 740 mmHg 49%
    17:00 +28°C° 0.1 mm 2 mps 740 mmHg 56%
    18:00 +27°C° 0.1 mm 2 mps 740 mmHg 64%
    19:00 +25°C° 0.1 mm 2 mps 740 mmHg 71%
    20:00 +24°C° 0.3 mm 2 mps 740 mmHg 77%
    21:00 +22°C° 0.3 mm 3 mps 740 mmHg 82%
    22:00 +21°C° 0.3 mm 3 mps 741 mmHg 88%
    23:00 +20°C° 0.2 mm 3 mps 740 mmHg 87%

    Day after tomorrow, 20 June, Thursday

    Time Temperature Precipitation Wind Pressure Humidity
    00:00 +20°C° 0.2 mm 2 mps 740 mmHg 86%
    01:00 +20°C° 0.2 mm 2 mps 740 mmHg 86%
    02:00 +19°C° 0 mm 2 mps 740 mmHg 87%
    03:00 +19°C° 0 mm 2 mps 740 mmHg 88%
    04:00 +20°C° 0 mm 1 mps 740 mmHg 89%
    05:00 +21°C° 0 mm 1 mps 741 mmHg 85%
    06:00 +23°C° 0 mm 1 mps 741 mmHg 80%
    07:00 +25°C° 0 mm 1 mps 741 mmHg 75%
    08:00 +26°C° 0.2 mm 1 mps 741 mmHg 69%
    09:00 +27°C° 0.2 mm 1 mps 741 mmHg 62%
    10:00 +29°C° 0.2 mm 1 mps 741 mmHg 55%
    11:00 +30°C° 0 mm 2 mps 741 mmHg 52%
    12:00 +30°C° 0 mm 2 mps 741 mmHg 49%
    13:00 +31°C° 0 mm 2 mps 740 mmHg 46%
    14:00 +31°C° 0 mm 1 mps 740 mmHg 45%
    15:00 +31°C° 0 mm 1 mps 740 mmHg 45%
    16:00 +31°C° 0 mm 1 mps 740 mmHg 44%
    17:00 +30°C° 0 mm 1 mps 740 mmHg 51%
    18:00 +28°C° 0 mm 1 mps 740 mmHg 58%
    19:00 +27°C° 0 mm 1 mps 740 mmHg 65%
    20:00 +25°C° 0 mm 2 mps 740 mmHg 69%
    21:00 +24°C° 0 mm 2 mps 740 mmHg 74%
    22:00 +23°C° 0 mm 2 mps 740 mmHg 78%
    23:00 +21°C° 0 mm 2 mps 740 mmHg 79%

    21 June, Friday

    Time Temperature Precipitation Wind Pressure Humidity
    00:00 +22°C° 0 mm 1 mps 740 mmHg 81%
    01:00 +22°C° 0 mm 1 mps 740 mmHg 82%
    02:00 +21°C° 0.2 mm 1 mps 740 mmHg 83%
    03:00 +21°C° 0.2 mm 1 mps 740 mmHg 84%
    04:00 +21°C° 0.2 mm 1 mps 740 mmHg 85%
    05:00 +22°C° 0.1 mm 1 mps 740 mmHg 81%
    06:00 +24°C° 0.1 mm 2 mps 741 mmHg 77%
    07:00 +25°C° 0.1 mm 2 mps 741 mmHg 73%
    08:00 +26°C° 0.2 mm 2 mps 741 mmHg 69%
    09:00 +27°C° 0.2 mm 2 mps 741 mmHg 65%
    10:00 +29°C° 0.2 mm 3 mps 741 mmHg 60%
    11:00 +29°C° 0.6 mm 3 mps 741 mmHg 58%
    12:00 +30°C° 0.6 mm 3 mps 741 mmHg 56%
    13:00 +30°C° 0.6 mm 3 mps 741 mmHg 54%
    14:00 +28°C° 0.7 mm 3 mps 740 mmHg 64%
    15:00 +26°C° 0.7 mm 3 mps 740 mmHg 74%
    16:00 +24°C° 0.7 mm 3 mps 740 mmHg 83%
    17:00 +23°C° 0.5 mm 4 mps 740 mmHg 84%
    18:00 +23°C° 0.5 mm 4 mps 741 mmHg 85%
    19:00 +22°C° 0.5 mm 5 mps 741 mmHg 86%
    20:00 +21°C° 0.4 mm 4 mps 741 mmHg 90%
    21:00 +20°C° 0.4 mm 4 mps 742 mmHg 93%
    22:00 +19°C° 0.4 mm 4 mps 742 mmHg 96%
    23:00 +19°C° 0.1 mm 4 mps 743 mmHg 96%

    22 June, Saturday

    Time Temperature Precipitation Wind Pressure Humidity
    00:00 +19°C° 0.1 mm 4 mps 743 mmHg 95%
    01:00 +19°C° 0.1 mm 4 mps 743 mmHg 95%
    02:00 +19°C° 0 mm 4 mps 743 mmHg 94%
    03:00 +18°C° 0 mm 4 mps 743 mmHg 93%
    04:00 +18°C° 0 mm 3 mps 744 mmHg 93%
    05:00 +18°C° 0 mm 3 mps 744 mmHg 90%
    06:00 +18°C° 0 mm 3 mps 745 mmHg 88%
    07:00 +19°C° 0 mm 3 mps 745 mmHg 86%
    08:00 +19°C° 0.1 mm 3 mps 745 mmHg 83%
    09:00 +20°C° 0.1 mm 3 mps 746 mmHg 80%
    10:00 +21°C° 0.1 mm 3 mps 746 mmHg 76%
    11:00 +22°C° 0.2 mm 3 mps 746 mmHg 74%
    12:00 +22°C° 0.2 mm 3 mps 746 mmHg 71%
    13:00 +24°C° 0.2 mm 3 mps 746 mmHg 69%
    14:00 +24°C° 0.5 mm 3 mps 746 mmHg 69%
    15:00 +23°C° 0.5 mm 4 mps 746 mmHg 70%
    16:00 +23°C° 0.5 mm 4 mps 745 mmHg 70%
    17:00 +22°C° 0.2 mm 3 mps 746 mmHg 74%
    18:00 +21°C° 0.2 mm 3 mps 746 mmHg 78%
    19:00 +20°C° 0.2 mm 3 mps 746 mmHg 82%
    20:00 +20°C° 0.1 mm 3 mps 746 mmHg 83%
    21:00 +19°C° 0.1 mm 2 mps 746 mmHg 85%
    22:00 +18°C° 0.1 mm 2 mps 746 mmHg 87%
    23:00 +18°C° 0 mm 3 mps 746 mmHg 87%

    23 June, Sunday

    Time Temperature Precipitation Wind Pressure Humidity
    00:00 +18°C° 0 mm 3 mps 746 mmHg 86%
    01:00 +18°C° 0 mm 3 mps 746 mmHg 86%
    02:00 +17°C° 0 mm 3 mps 746 mmHg 87%
    03:00 +17°C° 0 mm 3 mps 746 mmHg 88%
    04:00 +16°C° 0 mm 3 mps 746 mmHg 89%
    05:00 +17°C° 0 mm 3 mps 746 mmHg 87%
    06:00 +17°C° 0 mm 3 mps 746 mmHg 85%
    07:00 +18°C° 0 mm 3 mps 746 mmHg 83%
    08:00 +19°C° 0 mm 3 mps 746 mmHg 79%
    09:00 +20°C° 0 mm 2 mps 746 mmHg 75%
    10:00 +21°C° 0 mm 2 mps 746 mmHg 71%
    11:00 +23°C° 0.5 mm 2 mps 746 mmHg 70%
    12:00 +24°C° 0.5 mm 2 mps 746 mmHg 68%
    13:00 +25°C° 0.5 mm 2 mps 746 mmHg 66%
    14:00 +25°C° 0.7 mm 2 mps 745 mmHg 67%
    15:00 +25°C° 0.7 mm 2 mps 745 mmHg 67%
    16:00 +25°C° 0.7 mm 2 mps 745 mmHg 68%
    17:00 +24°C° 0.2 mm 2 mps 745 mmHg 71%
    18:00 +23°C° 0.2 mm 2 mps 745 mmHg 74%
    19:00 +21°C° 0.2 mm 2 mps 745 mmHg 77%
    20:00 +20°C° 0.4 mm 2 mps 745 mmHg 80%
    21:00 +19°C° 0.4 mm 2 mps 746 mmHg 84%
    22:00 +17°C° 0.4 mm 2 mps 746 mmHg 87%
    23:00 +17°C° 0.7 mm 2 mps 746 mmHg 89%
    Show more